When you browse on this site, cookies collect data to enhance your experience and personalize the content and advertising you see.
Visit our Privacy Policy to learn more. By continuing to use the site, you agree to this use of cookies and data.
  • In United Kingdom
  • List of Countries
  • For 7 days
  • Water Temperature
  • Satellite Maps
  • Weather Map
  • Weather Widgets
  • user-avatar
    Login

    Hourly Weather Bouake

    Today, 23 April, Tuesday

    Time Temperature Precipitation Wind Pressure Humidity
    00:00 +28°C° 0.2 mm 3 mps 727 mmHg 75%
    01:00 +28°C° 0.3 mm 3 mps 727 mmHg 78%
    02:00 +28°C° 0.3 mm 3 mps 727 mmHg 82%
    03:00 +27°C° 0.3 mm 3 mps 727 mmHg 85%
    04:00 +27°C° 0 mm 3 mps 727 mmHg 86%
    05:00 +26°C° 0 mm 2 mps 727 mmHg 87%
    06:00 +26°C° 0 mm 1 mps 728 mmHg 88%
    07:00 +27°C° 0 mm 2 mps 728 mmHg 83%
    08:00 +29°C° 0 mm 2 mps 729 mmHg 78%
    09:00 +30°C° 0 mm 3 mps 729 mmHg 73%
    10:00 +33°C° 0 mm 3 mps 729 mmHg 66%
    11:00 +35°C° 0 mm 3 mps 729 mmHg 59%
    12:00 +37°C° 0 mm 3 mps 729 mmHg 52%
    13:00 +36°C° 3.2 mm 2 mps 728 mmHg 55%
    14:00 +35°C° 3.2 mm 2 mps 727 mmHg 57%
    15:00 +35°C° 3.2 mm 2 mps 727 mmHg 60%
    16:00 +33°C° 0 mm 1 mps 727 mmHg 62%
    17:00 +32°C° 0 mm 1 mps 726 mmHg 65%
    18:00 +32°C° 0 mm 1 mps 726 mmHg 68%
    19:00 +31°C° 0.3 mm 1 mps 727 mmHg 70%
    20:00 +30°C° 0.3 mm 2 mps 727 mmHg 73%
    21:00 +29°C° 0.3 mm 2 mps 728 mmHg 75%
    22:00 +28°C° 0 mm 2 mps 728 mmHg 79%
    23:00 +28°C° 0 mm 2 mps 728 mmHg 83%

    Tomorrow, 24 April, Wednesday

    Time Temperature Precipitation Wind Pressure Humidity
    00:00 +27°C° 0 mm 1 mps 729 mmHg 87%
    01:00 +26°C° 0.3 mm 2 mps 728 mmHg 89%
    02:00 +26°C° 0.3 mm 2 mps 728 mmHg 91%
    03:00 +26°C° 0.3 mm 2 mps 727 mmHg 93%
    04:00 +25°C° 0 mm 2 mps 727 mmHg 93%
    05:00 +25°C° 0 mm 2 mps 727 mmHg 94%
    06:00 +25°C° 0 mm 1 mps 728 mmHg 94%
    07:00 +27°C° 0 mm 2 mps 728 mmHg 88%
    08:00 +28°C° 0 mm 2 mps 729 mmHg 81%
    09:00 +30°C° 0 mm 3 mps 730 mmHg 75%
    10:00 +31°C° 0 mm 3 mps 730 mmHg 68%
    11:00 +34°C° 0 mm 2 mps 730 mmHg 60%
    12:00 +36°C° 0 mm 2 mps 730 mmHg 53%
    13:00 +37°C° 0 mm 2 mps 729 mmHg 50%
    14:00 +37°C° 0 mm 2 mps 728 mmHg 47%
    15:00 +38°C° 0 mm 2 mps 727 mmHg 44%
    16:00 +37°C° 0.3 mm 2 mps 727 mmHg 50%
    17:00 +35°C° 0.3 mm 2 mps 727 mmHg 56%
    18:00 +34°C° 0.3 mm 2 mps 727 mmHg 62%
    19:00 +31°C° 1.5 mm 3 mps 728 mmHg 70%
    20:00 +29°C° 1.5 mm 3 mps 728 mmHg 78%
    21:00 +28°C° 1.5 mm 3 mps 729 mmHg 86%
    22:00 +27°C° 0.1 mm 3 mps 729 mmHg 87%
    23:00 +27°C° 0.1 mm 2 mps 730 mmHg 88%

    Day after tomorrow, 25 April, Thursday

    Time Temperature Precipitation Wind Pressure Humidity
    00:00 +27°C° 0.1 mm 2 mps 730 mmHg 90%
    01:00 +27°C° 0 mm 2 mps 729 mmHg 91%
    02:00 +27°C° 0 mm 2 mps 729 mmHg 92%
    03:00 +26°C° 0 mm 2 mps 728 mmHg 94%
    04:00 +26°C° 0 mm 2 mps 728 mmHg 94%
    05:00 +26°C° 0 mm 2 mps 728 mmHg 95%
    06:00 +26°C° 0 mm 2 mps 728 mmHg 95%
    07:00 +27°C° 0 mm 2 mps 729 mmHg 89%
    08:00 +28°C° 0 mm 2 mps 730 mmHg 83%
    09:00 +30°C° 0 mm 1 mps 730 mmHg 76%
    10:00 +32°C° 0 mm 2 mps 730 mmHg 68%
    11:00 +35°C° 0 mm 2 mps 730 mmHg 60%
    12:00 +37°C° 0 mm 2 mps 730 mmHg 51%
    13:00 +37°C° 0 mm 2 mps 729 mmHg 50%
    14:00 +37°C° 0 mm 2 mps 728 mmHg 49%
    15:00 +36°C° 0 mm 1 mps 727 mmHg 47%
    16:00 +36°C° 0 mm 1 mps 727 mmHg 51%
    17:00 +35°C° 0 mm 1 mps 727 mmHg 54%
    18:00 +34°C° 0 mm 1 mps 727 mmHg 57%
    19:00 +32°C° 1.4 mm 2 mps 728 mmHg 66%
    20:00 +30°C° 1.4 mm 3 mps 728 mmHg 74%
    21:00 +28°C° 1.4 mm 3 mps 729 mmHg 83%
    22:00 +28°C° 0.4 mm 3 mps 729 mmHg 85%
    23:00 +27°C° 0.4 mm 2 mps 729 mmHg 87%

    26 April, Friday

    Time Temperature Precipitation Wind Pressure Humidity
    00:00 +27°C° 0.4 mm 1 mps 730 mmHg 89%
    01:00 +27°C° 0.2 mm 2 mps 729 mmHg 90%
    02:00 +27°C° 0.2 mm 2 mps 729 mmHg 91%
    03:00 +26°C° 0.2 mm 2 mps 728 mmHg 93%
    04:00 +26°C° 0 mm 2 mps 728 mmHg 94%
    05:00 +26°C° 0 mm 2 mps 729 mmHg 94%
    06:00 +26°C° 0 mm 1 mps 729 mmHg 95%
    07:00 +27°C° 0 mm 2 mps 729 mmHg 89%
    08:00 +29°C° 0 mm 2 mps 730 mmHg 82%
    09:00 +30°C° 0 mm 3 mps 730 mmHg 76%
    10:00 +33°C° 0 mm 3 mps 730 mmHg 69%
    11:00 +34°C° 0 mm 2 mps 730 mmHg 62%
    12:00 +36°C° 0 mm 2 mps 729 mmHg 55%
    13:00 +36°C° 0 mm 2 mps 728 mmHg 54%
    14:00 +36°C° 0 mm 2 mps 727 mmHg 54%
    15:00 +36°C° 0 mm 2 mps 726 mmHg 53%
    16:00 +35°C° 0 mm 2 mps 727 mmHg 55%
    17:00 +34°C° 0 mm 1 mps 727 mmHg 57%
    18:00 +33°C° 0 mm 1 mps 727 mmHg 59%
    19:00 +31°C° 0.6 mm 2 mps 728 mmHg 68%
    20:00 +29°C° 0.6 mm 2 mps 728 mmHg 77%
    21:00 +27°C° 0.6 mm 3 mps 729 mmHg 87%
    22:00 +27°C° 0.1 mm 3 mps 728 mmHg 88%
    23:00 +27°C° 0.1 mm 3 mps 728 mmHg 88%

    27 April, Saturday

    Time Temperature Precipitation Wind Pressure Humidity
    00:00 +27°C° 0.1 mm 2 mps 728 mmHg 89%
    01:00 +26°C° 0 mm 2 mps 727 mmHg 91%
    02:00 +26°C° 0 mm 2 mps 727 mmHg 92%
    03:00 +26°C° 0 mm 1 mps 727 mmHg 93%
    04:00 +26°C° 0 mm 2 mps 728 mmHg 93%
    05:00 +26°C° 0 mm 2 mps 728 mmHg 93%
    06:00 +26°C° 0 mm 2 mps 729 mmHg 93%
    07:00 +27°C° 0 mm 2 mps 729 mmHg 90%
    08:00 +27°C° 0 mm 2 mps 729 mmHg 87%
    09:00 +28°C° 0 mm 2 mps 730 mmHg 84%
    10:00 +29°C° 0 mm 2 mps 729 mmHg 76%
    11:00 +31°C° 0 mm 3 mps 729 mmHg 69%
    12:00 +34°C° 0 mm 3 mps 729 mmHg 61%
    13:00 +35°C° 0 mm 3 mps 728 mmHg 58%
    14:00 +36°C° 0 mm 3 mps 727 mmHg 55%
    15:00 +36°C° 0 mm 3 mps 726 mmHg 52%
    16:00 +36°C° 0 mm 2 mps 726 mmHg 55%
    17:00 +35°C° 0 mm 2 mps 726 mmHg 59%
    18:00 +34°C° 0 mm 2 mps 727 mmHg 62%
    19:00 +31°C° 0.4 mm 2 mps 727 mmHg 68%
    20:00 +30°C° 0.4 mm 2 mps 728 mmHg 75%
    21:00 +28°C° 0.4 mm 2 mps 728 mmHg 81%
    22:00 +28°C° 0.2 mm 2 mps 728 mmHg 83%
    23:00 +27°C° 0.2 mm 2 mps 728 mmHg 86%

    28 April, Sunday

    Time Temperature Precipitation Wind Pressure Humidity
    00:00 +27°C° 0.2 mm 3 mps 728 mmHg 89%
    01:00 +27°C° 0 mm 3 mps 728 mmHg 91%
    02:00 +26°C° 0 mm 3 mps 727 mmHg 92%
    03:00 +26°C° 0 mm 3 mps 727 mmHg 94%
    04:00 +26°C° 0 mm 2 mps 727 mmHg 94%
    05:00 +26°C° 0 mm 2 mps 728 mmHg 93%
    06:00 +26°C° 0 mm 2 mps 728 mmHg 92%
    07:00 +27°C° 0 mm 3 mps 728 mmHg 89%
    08:00 +28°C° 0 mm 3 mps 729 mmHg 86%
    09:00 +28°C° 0 mm 3 mps 730 mmHg 83%
    10:00 +30°C° 0 mm 3 mps 729 mmHg 74%
    11:00 +33°C° 0 mm 3 mps 729 mmHg 66%
    12:00 +35°C° 0 mm 3 mps 729 mmHg 58%
    13:00 +36°C° 0 mm 3 mps 728 mmHg 55%
    14:00 +37°C° 0 mm 3 mps 727 mmHg 52%
    15:00 +37°C° 0 mm 2 mps 727 mmHg 49%
    16:00 +36°C° 0 mm 2 mps 727 mmHg 54%
    17:00 +35°C° 0 mm 2 mps 727 mmHg 58%
    18:00 +34°C° 0 mm 2 mps 727 mmHg 63%
    19:00 +32°C° 0.2 mm 2 mps 728 mmHg 67%
    20:00 +30°C° 0.2 mm 2 mps 728 mmHg 71%
    21:00 +29°C° 0.2 mm 2 mps 729 mmHg 75%
    22:00 +29°C° 0.3 mm 2 mps 728 mmHg 79%
    23:00 +28°C° 0.3 mm 2 mps 728 mmHg 82%
    Show more